SCP
-0 -0 -0 0 -0 -0 -0 -0 -0 -0 -0 -0 -0 0 0 0 0 0 0 0 0 0 0 0 0 0 0 0 0 0 0 0 0 0 1 0 0 0 0 0 0 0 0
-0 -0 -0 -0 -0 -0 0 -0 -0 -0 -0 -0 -0 -0 0 0 0 0 0 0 0 0 0 0 0 0 0 0 0 0 0 1 0 0 0 0 0 0 0 0 0 0 0
-0 -0 -0 -0 -0 -0 -0 0 0 0 -0 -0 -0 -0 -0 -0 -0 0 0 0 0 0 0 0 0 0 0 0 0 0 0 0 0 1 0 0 0 0 0 0 0 0 0
-0 -0 -0 -0 -0 -0 -0 -0 0 0 0 -0 -0 -0 -0 0 0 -0 0 0 0 0 0 0 0 0 0 0 0 0 0 0 0 0 1 0 0 0 0 0 0 0 0
-0 -0 -0 -0 -0 -0 -0 -0 -0 0 0 0 0 0 0 0 0 0 0 0 0 0 0 0 0 0 0 0 0 0 0 0 0 0 0 0 0 0 0 0 0 0 0
-0 -0 -0 -0 -0 -0 -0 -0 0 0 0 0 0 0 0 0 0 0 0 0 0 -0 0 0 0 0 0 0 0 1 0 1 0 0 0 0 0 0 0 0 0 0 0
0 0 -0 -0 -0 -0 -0 -0 -0 0 0 0 0 0 0 0 0 0 0 0 0 0 0 0 0 0 0 0 0 1 1 1 0 0 0 0 0 1 1 1 0 0 0
0 0 0 0 -0 -0 -0 -0 -0 -0 0 0 0 0 0 0 0 0 0 0 0 0 0 0 0 0 0 0 0 0 1 0 0 0 0 0 0 1 1 1 1 1 1
0 0 0 0 0 0 0 -0 -0 -0 0 0 0 0 0 0 0 0 0 0 0 0 0 0 0 0 0 0 0 0 0 0 0 0 0 0 0 0 0 1 1 0 1
0 0 0 0 0 0 0 0 0 0 0 0 0 0 0 0 0 0 0 0 0 0 0 0 0 0 0 0 0 0 0 0 0 0 0 0 0 0 0 1 1 1 1
0 0 0 0 0 0 0 0 0 0 0 0 0 0 0 0 0 0 0 0 0 0 0 0 0 0 0 0 0 0 0 0 0 0 0 0 0 1 1 1 1 1 1
0 0 0 0 0 0 0 0 0 0 0 0 0 0 0 0 0 0 0 0 0 0 0 0 0 0 0 0 0 0 1 1 0 0 0 0 0 1 1 1 1 1 1
0 0 0 0 0 0 0 -0 -0 -0 0 0 0 0 0 0 0 0 0 0 0 0 0 0 0 0 0 0 1 1 1 1 0 0 0 0 1 1 1 1 1 1 1
0 0 0 0 0 -0 -0 -0 -0 -0 -0 -0 0 0 0 0 0 0 0 0 0 0 0 0 0 0 0 0 1 1 1 1 0 0 0 0 0 1 2 1 2 1 1
0 0 0 0 -0 -0 -0 -0 -0 -0 -0 -0 -0 0 0 0 0 0 -0 0 0 0 0 0 0 0 0 0 1 1 0 0 0 0 0 0 0 1 2 1 1 1 1
0 0 0 0 -0 -0 -0 -0 -0 -0 -0 -0 -0 -0 -0 -0 0 0 0 0 0 0 0 0 0 0 0 0 1 0 0 0 0 0 0 0 0 0 1 2 1 1 1
0 0 0 0 -0 -0 -0 -0 -0 -0 -0 -0 0 0 0 0 0 0 0 -0 0 -0 0 0 0 0 0 0 0 0 0 0 0 0 0 0 0 0 0 1 1 1 1
0 0 0 0 -0 -0 -0 -0 -0 -0 0 0 0 0 0 0 0 0 0 0 0 0 0 0 0 0 0 0 0 0 0 0 0 0 0 0 0 0 0 1 1 1 2
0 0 0 0 -0 -0 -0 -0 -0 0 0 0 0 0 0 0 0 0 0 0 0 0 0 0 0 0 0 0 0 0 0 0 0 0 0 0 0 0 0 0 1 1 1
0 0 0 0 -0 -0 -0 -0 0 0 0 0 0 0 0 0 0 0 0 0 0 0 0 0 0 0 0 0 0 0 0 0 0 0 0 0 0 0 0 1 0 0 0
0 0 0 0 0 -0 -0 -0 0 0 0 0 0 0 0 0 0 0 0 0 0 0 0 0 0 -0 -0 0 0 0 0 0 0 0 0 0 0 0 0 0 0 0 0
0 0 0 0 0 0 0 0 0 0 0 0 0 0 0 0 0 0 0 0 0 0 0 0 0 -0 -0 -0 0 0 0 0 0 0 0 0 0 0 0 0 0 0 0
0 0 0 0 0 0 0 0 0 0 0 0 0 0 0 0 0 0 0 0 0 0 0 0 0 0 -0 -0 0 0 0 0 0 0 0 0 0 0 0 0 0 0 0
0 0 0 0 0 0 0 0 0 0 0 0 0 0 0 0 0 0 0 0 0 0 0 0 0 0 -0 -0 -0 0 0 0 0 0 0 0 0 0 0 0 0 0 0
0 0 -0 0 0 0 0 0 0 0 0 0 0 0 0 0 0 0 0 0 0 0 0 0 0 0 -0 -0 -0 0 0 0 0 0 0 0 0 0 0 0 0 0 0
0 0 0 -0 0 0 0 0 0 0 0 0 0 0 0 0 0 0 0 0 0 0 0 0 0 0 -0 -0 -0 -0 0 0 0 0 0 0 0 0 0 0 0 0 0
Wind_Speed_500mb
29 28 28 30 18 12 15 17 15 12 11 13 16 17 16 16 17 20 22 25 29 26 26 25 25 25 21 23 26 30 32 29 23 21 22 17 14 15 19 23 26 29 30
23 28 29 26 18 13 11 12 14 15 17 19 17 19 21 22 22 24 24 26 27 33 32 31 30 30 28 26 27 36 37 36 31 24 24 21 20 19 23 24 28 31 33
16 21 25 22 19 15 11 13 17 19 22 22 22 21 23 25 28 29 26 24 25 28 33 38 35 33 33 31 31 37 40 41 37 33 29 25 25 26 27 28 28 30 33
19 13 10 15 16 9 8 10 15 19 24 26 28 30 30 30 31 33 31 28 28 31 31 33 40 37 36 37 33 37 41 45 42 40 35 30 31 31 30 31 32 33 34
15 16 20 21 18 13 12 17 15 20 22 28 32 35 37 38 38 38 37 34 34 35 35 34 35 40 39 40 39 38 43 45 46 44 40 36 37 37 35 32 31 36 36
11 14 17 19 20 19 18 14 16 24 25 27 31 36 39 42 45 44 44 44 41 39 39 38 35 35 37 41 44 42 44 45 48 48 45 41 41 39 38 36 31 36 40
20 18 19 20 19 19 24 22 21 19 25 32 32 35 41 44 47 49 48 48 48 45 42 41 40 38 38 40 45 49 46 46 53 53 49 47 49 43 40 37 35 37 41
29 31 32 35 33 28 23 26 29 30 32 30 36 40 40 41 47 50 51 52 51 51 49 47 46 45 44 45 45 53 51 50 56 56 53 55 55 48 46 44 42 44 44
29 30 32 33 34 35 38 41 37 31 32 39 41 42 46 47 47 48 51 54 55 56 54 53 53 52 50 51 50 54 58 55 61 61 59 62 60 55 51 47 47 48 47
25 26 31 32 33 34 37 39 41 42 41 39 39 46 47 48 51 54 56 59 58 61 61 58 59 59 58 55 54 55 62 60 63 63 64 67 63 59 54 50 55 55 53
21 27 32 35 38 40 40 42 43 44 43 44 43 41 45 56 54 52 52 52 62 65 67 63 63 62 62 61 63 60 63 69 69 71 72 75 71 64 61 55 56 61 62
27 34 39 43 46 49 53 54 53 50 45 44 46 47 44 44 55 61 57 56 56 59 66 66 65 67 65 69 68 65 67 77 75 75 77 78 81 72 69 65 62 65 68
29 36 44 52 56 61 64 65 64 61 58 54 47 48 52 52 51 52 61 66 64 58 65 70 75 73 74 75 75 73 73 82 82 84 89 85 87 83 76 73 68 72 75
31 40 46 53 56 60 65 67 65 64 65 59 61 58 55 56 59 57 59 56 56 68 67 68 78 81 80 80 81 80 80 87 90 87 91 88 90 89 84 81 78 81 81
37 41 48 55 56 60 63 67 69 68 65 61 60 60 66 66 63 66 68 65 62 59 65 75 75 83 89 85 86 85 87 90 93 90 89 95 93 90 88 83 84 87 89
38 40 48 55 56 61 65 70 74 75 73 71 64 60 62 71 78 72 70 72 72 65 63 60 77 82 88 91 91 90 91 93 94 94 92 95 95 94 90 89 86 88 95
39 40 49 54 58 63 67 71 71 73 75 77 76 77 80 75 78 81 75 77 73 76 68 69 58 84 85 95 98 95 93 94 98 96 98 98 97 96 90 89 92 96 98
38 44 49 55 60 65 69 71 73 73 74 76 80 88 92 88 82 77 79 81 79 76 78 76 71 61 90 91 96 100 98 94 93 97 100 102 99 99 96 95 100 106 108
40 44 52 56 62 70 71 71 73 74 80 85 87 88 90 91 81 75 80 83 78 85 81 79 87 67 67 95 100 97 100 97 97 102 105 109 103 109 103 97 101 114 119
40 46 52 57 64 69 73 75 76 80 84 89 93 93 92 85 73 69 79 77 85 83 84 81 81 88 70 64 100 101 104 100 96 101 99 105 110 118 113 106 111 134 142
41 47 53 60 64 67 74 81 85 90 93 97 98 97 93 88 73 70 74 79 76 78 84 83 79 87 93 48 73 95 107 100 95 100 94 84 93 122 129 115 121 115 133
41 45 52 58 61 65 71 77 84 92 98 103 109 106 102 98 88 78 78 73 74 82 82 80 77 79 82 106 71 81 70 81 108 105 95 90 66 84 102 112 117 112 125
41 46 52 57 61 66 72 79 86 92 99 107 111 114 111 102 90 80 75 77 80 75 79 79 72 73 70 99 104 42 46 32 80 98 114 94 84 58 79 99 100 89 114
38 42 50 56 59 66 72 80 86 96 106 106 114 117 118 107 92 81 71 75 71 71 83 80 72 77 78 87 103 120 70 65 82 47 96 105 85 82 66 77 80 121 112
35 39 52 58 61 67 71 78 86 94 99 107 114 115 118 111 92 85 75 75 75 63 69 77 76 78 77 67 76 113 98 65 114 93 68 90 96 93 80 52 97 82 113
31 39 51 61 63 69 76 79 86 93 99 107 112 115 123 112 94 91 83 73 73 69 58 69 75 78 82 81 73 83 107 95 82 111 90 95 101 95 96 113 71 107 122
Wind_Direction_500mb
357 360 355 3 11 341 314 303 293 287 287 296 291 286 281 282 286 293 294 288 277 262 262 261 260 262 255 248 239 237 234 232 227 236 236 218 209 212 203 196 185 182 179
357 3 347 353 11 1 337 311 292 289 293 295 283 281 284 286 289 290 290 290 286 280 267 261 259 259 256 245 237 238 236 234 230 232 234 227 207 210 192 190 183 184 181
23 18 2 356 360 7 338 319 308 295 293 287 284 285 280 283 293 288 283 287 296 288 279 270 263 257 256 249 231 238 237 237 231 234 230 223 215 208 189 183 187 184 183
340 338 347 1 347 325 294 294 300 301 301 300 295 288 282 278 288 291 296 295 292 294 283 274 271 261 253 248 234 238 236 238 230 233 228 219 213 214 204 189 188 186 185
315 333 328 329 320 312 303 273 262 277 284 289 290 290 285 282 283 282 290 291 292 291 290 276 267 267 256 248 238 234 239 238 235 230 228 217 213 211 213 205 197 192 189
2 334 327 313 311 318 308 286 266 259 273 280 282 283 284 282 280 281 282 284 286 286 284 280 270 261 259 250 242 236 240 237 235 228 222 219 214 210 211 210 199 191 185
32 20 4 349 335 320 320 314 301 293 265 269 274 277 280 281 280 280 279 279 282 281 277 274 271 263 257 257 245 237 238 235 233 229 221 218 212 207 212 208 204 197 192
52 49 45 41 33 21 354 335 326 312 300 290 275 277 276 277 282 280 280 277 276 278 275 269 269 262 259 255 251 237 238 234 232 227 225 218 211 208 213 212 209 203 200
46 43 42 38 35 31 26 23 15 349 318 303 296 283 280 276 274 278 279 278 277 274 272 270 266 263 260 255 250 241 237 234 233 229 223 217 214 210 213 216 213 205 198
42 36 33 26 19 14 10 6 3 358 360 354 323 298 290 285 279 277 275 275 272 273 270 268 267 262 259 256 253 247 238 236 234 228 220 218 218 213 216 219 212 207 200
38 30 24 18 12 8 1 355 348 341 335 333 333 334 315 288 288 286 283 284 277 274 263 266 267 262 258 255 253 247 240 235 232 227 221 220 217 215 218 222 214 212 203
25 19 12 10 6 2 359 355 350 343 334 324 319 319 313 313 295 285 282 278 271 271 270 264 263 263 258 255 254 250 240 236 231 228 225 221 219 216 218 221 217 213 205
24 14 9 5 4 1 358 355 351 349 343 336 329 320 313 309 301 304 288 279 277 278 268 262 262 260 258 255 253 250 244 236 233 226 225 223 222 221 220 223 222 213 207
17 10 6 4 2 359 354 350 348 346 344 338 335 332 324 313 307 303 299 293 286 279 279 270 260 260 259 257 253 251 246 240 234 230 227 223 223 222 220 219 222 213 207
12 5 2 2 360 356 353 349 347 346 342 337 332 329 327 321 312 304 299 295 287 278 281 275 270 261 257 256 254 248 246 242 237 232 229 225 222 222 222 221 219 213 208
7 1 358 1 359 356 351 348 345 344 340 336 331 324 321 318 312 307 298 293 289 285 273 289 276 271 258 254 254 251 245 243 236 231 227 231 223 223 221 217 218 216 210
4 1 360 357 355 353 351 346 344 342 340 337 333 329 326 322 311 305 301 297 292 287 278 272 277 271 267 256 254 249 246 242 235 230 228 230 227 224 222 217 218 214 212
360 0 358 355 353 351 348 344 342 340 337 332 330 329 325 320 315 305 300 298 296 288 283 269 271 284 260 260 250 247 245 240 235 233 228 229 225 223 221 220 220 218 211
354 357 357 356 353 349 346 342 338 336 337 338 334 330 326 320 312 303 298 299 296 296 289 285 269 269 264 254 248 240 244 236 233 233 229 231 227 222 222 216 216 217 209
351 355 355 355 352 348 343 340 340 338 336 337 337 335 329 323 310 295 293 293 291 294 293 287 288 266 268 265 243 230 239 236 230 232 232 228 230 227 225 222 220 222 209
346 350 354 351 349 348 345 343 340 339 338 336 336 336 333 323 309 286 285 287 286 288 291 290 289 295 265 281 245 233 222 230 225 222 223 217 220 230 227 225 220 220 211
347 348 352 351 347 347 343 341 339 336 336 336 336 336 334 327 320 292 278 280 286 288 286 286 290 295 283 265 279 227 214 209 212 221 215 216 212 217 214 214 218 230 231
344 347 349 349 345 343 340 337 335 333 333 334 334 334 335 329 321 309 287 275 280 283 281 282 287 289 293 276 257 285 216 204 199 207 209 216 220 219 207 213 218 201 187
340 343 343 347 342 341 338 336 335 334 331 332 332 332 333 329 321 318 305 274 276 275 277 277 280 288 292 277 273 255 309 220 191 192 210 216 218 213 219 220 221 210 210
340 339 343 342 342 337 337 335 334 330 328 329 330 330 331 326 320 317 307 287 267 274 279 274 277 281 289 257 265 264 273 300 214 198 194 205 219 219 211 211 219 195 196
336 336 339 340 338 336 336 334 331 329 328 327 330 329 328 323 318 315 307 295 272 267 270 275 271 274 283 269 268 261 259 272 224 192 198 199 203 214 215 214 212 192 190
Wind_Speed_850mb
29 28 28 30 18 12 15 17 15 12 11 13 16 17 16 16 17 20 22 25 29 26 26 25 25 25 21 23 26 30 32 29 23 21 22 17 14 15 19 23 26 29 30
23 28 29 26 18 13 11 12 14 15 17 19 17 19 21 22 22 24 24 26 27 33 32 31 30 30 28 26 27 36 37 36 31 24 24 21 20 19 23 24 28 31 33
16 21 25 22 19 15 11 13 17 19 22 22 22 21 23 25 28 29 26 24 25 28 33 38 35 33 33 31 31 37 40 41 37 33 29 25 25 26 27 28 28 30 33
19 13 10 15 16 9 8 10 15 19 24 26 28 30 30 30 31 33 31 28 28 31 31 33 40 37 36 37 33 37 41 45 42 40 35 30 31 31 30 31 32 33 34
15 16 20 21 18 13 12 17 15 20 22 28 32 35 37 38 38 38 37 34 34 35 35 34 35 40 39 40 39 38 43 45 46 44 40 36 37 37 35 32 31 36 36
11 14 17 19 20 19 18 14 16 24 25 27 31 36 39 42 45 44 44 44 41 39 39 38 35 35 37 41 44 42 44 45 48 48 45 41 41 39 38 36 31 36 40
20 18 19 20 19 19 24 22 21 19 25 32 32 35 41 44 47 49 48 48 48 45 42 41 40 38 38 40 45 49 46 46 53 53 49 47 49 43 40 37 35 37 41
29 31 32 35 33 28 23 26 29 30 32 30 36 40 40 41 47 50 51 52 51 51 49 47 46 45 44 45 45 53 51 50 56 56 53 55 55 48 46 44 42 44 44
29 30 32 33 34 35 38 41 37 31 32 39 41 42 46 47 47 48 51 54 55 56 54 53 53 52 50 51 50 54 58 55 61 61 59 62 60 55 51 47 47 48 47
25 26 31 32 33 34 37 39 41 42 41 39 39 46 47 48 51 54 56 59 58 61 61 58 59 59 58 55 54 55 62 60 63 63 64 67 63 59 54 50 55 55 53
21 27 32 35 38 40 40 42 43 44 43 44 43 41 45 56 54 52 52 52 62 65 67 63 63 62 62 61 63 60 63 69 69 71 72 75 71 64 61 55 56 61 62
27 34 39 43 46 49 53 54 53 50 45 44 46 47 44 44 55 61 57 56 56 59 66 66 65 67 65 69 68 65 67 77 75 75 77 78 81 72 69 65 62 65 68
29 36 44 52 56 61 64 65 64 61 58 54 47 48 52 52 51 52 61 66 64 58 65 70 75 73 74 75 75 73 73 82 82 84 89 85 87 83 76 73 68 72 75
31 40 46 53 56 60 65 67 65 64 65 59 61 58 55 56 59 57 59 56 56 68 67 68 78 81 80 80 81 80 80 87 90 87 91 88 90 89 84 81 78 81 81
37 41 48 55 56 60 63 67 69 68 65 61 60 60 66 66 63 66 68 65 62 59 65 75 75 83 89 85 86 85 87 90 93 90 89 95 93 90 88 83 84 87 89
38 40 48 55 56 61 65 70 74 75 73 71 64 60 62 71 78 72 70 72 72 65 63 60 77 82 88 91 91 90 91 93 94 94 92 95 95 94 90 89 86 88 95
39 40 49 54 58 63 67 71 71 73 75 77 76 77 80 75 78 81 75 77 73 76 68 69 58 84 85 95 98 95 93 94 98 96 98 98 97 96 90 89 92 96 98
38 44 49 55 60 65 69 71 73 73 74 76 80 88 92 88 82 77 79 81 79 76 78 76 71 61 90 91 96 100 98 94 93 97 100 102 99 99 96 95 100 106 108
40 44 52 56 62 70 71 71 73 74 80 85 87 88 90 91 81 75 80 83 78 85 81 79 87 67 67 95 100 97 100 97 97 102 105 109 103 109 103 97 101 114 119
40 46 52 57 64 69 73 75 76 80 84 89 93 93 92 85 73 69 79 77 85 83 84 81 81 88 70 64 100 101 104 100 96 101 99 105 110 118 113 106 111 134 142
41 47 53 60 64 67 74 81 85 90 93 97 98 97 93 88 73 70 74 79 76 78 84 83 79 87 93 48 73 95 107 100 95 100 94 84 93 122 129 115 121 115 133
41 45 52 58 61 65 71 77 84 92 98 103 109 106 102 98 88 78 78 73 74 82 82 80 77 79 82 106 71 81 70 81 108 105 95 90 66 84 102 112 117 112 125
41 46 52 57 61 66 72 79 86 92 99 107 111 114 111 102 90 80 75 77 80 75 79 79 72 73 70 99 104 42 46 32 80 98 114 94 84 58 79 99 100 89 114
38 42 50 56 59 66 72 80 86 96 106 106 114 117 118 107 92 81 71 75 71 71 83 80 72 77 78 87 103 120 70 65 82 47 96 105 85 82 66 77 80 121 112
35 39 52 58 61 67 71 78 86 94 99 107 114 115 118 111 92 85 75 75 75 63 69 77 76 78 77 67 76 113 98 65 114 93 68 90 96 93 80 52 97 82 113
31 39 51 61 63 69 76 79 86 93 99 107 112 115 123 112 94 91 83 73 73 69 58 69 75 78 82 81 73 83 107 95 82 111 90 95 101 95 96 113 71 107 122
Wind_Direction_850mb
357 360 355 3 11 341 314 303 293 287 287 296 291 286 281 282 286 293 294 288 277 262 262 261 260 262 255 248 239 237 234 232 227 236 236 218 209 212 203 196 185 182 179
357 3 347 353 11 1 337 311 292 289 293 295 283 281 284 286 289 290 290 290 286 280 267 261 259 259 256 245 237 238 236 234 230 232 234 227 207 210 192 190 183 184 181
23 18 2 356 360 7 338 319 308 295 293 287 284 285 280 283 293 288 283 287 296 288 279 270 263 257 256 249 231 238 237 237 231 234 230 223 215 208 189 183 187 184 183
340 338 347 1 347 325 294 294 300 301 301 300 295 288 282 278 288 291 296 295 292 294 283 274 271 261 253 248 234 238 236 238 230 233 228 219 213 214 204 189 188 186 185
315 333 328 329 320 312 303 273 262 277 284 289 290 290 285 282 283 282 290 291 292 291 290 276 267 267 256 248 238 234 239 238 235 230 228 217 213 211 213 205 197 192 189
2 334 327 313 311 318 308 286 266 259 273 280 282 283 284 282 280 281 282 284 286 286 284 280 270 261 259 250 242 236 240 237 235 228 222 219 214 210 211 210 199 191 185
32 20 4 349 335 320 320 314 301 293 265 269 274 277 280 281 280 280 279 279 282 281 277 274 271 263 257 257 245 237 238 235 233 229 221 218 212 207 212 208 204 197 192
52 49 45 41 33 21 354 335 326 312 300 290 275 277 276 277 282 280 280 277 276 278 275 269 269 262 259 255 251 237 238 234 232 227 225 218 211 208 213 212 209 203 200
46 43 42 38 35 31 26 23 15 349 318 303 296 283 280 276 274 278 279 278 277 274 272 270 266 263 260 255 250 241 237 234 233 229 223 217 214 210 213 216 213 205 198
42 36 33 26 19 14 10 6 3 358 360 354 323 298 290 285 279 277 275 275 272 273 270 268 267 262 259 256 253 247 238 236 234 228 220 218 218 213 216 219 212 207 200
38 30 24 18 12 8 1 355 348 341 335 333 333 334 315 288 288 286 283 284 277 274 263 266 267 262 258 255 253 247 240 235 232 227 221 220 217 215 218 222 214 212 203
25 19 12 10 6 2 359 355 350 343 334 324 319 319 313 313 295 285 282 278 271 271 270 264 263 263 258 255 254 250 240 236 231 228 225 221 219 216 218 221 217 213 205
24 14 9 5 4 1 358 355 351 349 343 336 329 320 313 309 301 304 288 279 277 278 268 262 262 260 258 255 253 250 244 236 233 226 225 223 222 221 220 223 222 213 207
17 10 6 4 2 359 354 350 348 346 344 338 335 332 324 313 307 303 299 293 286 279 279 270 260 260 259 257 253 251 246 240 234 230 227 223 223 222 220 219 222 213 207
12 5 2 2 360 356 353 349 347 346 342 337 332 329 327 321 312 304 299 295 287 278 281 275 270 261 257 256 254 248 246 242 237 232 229 225 222 222 222 221 219 213 208
7 1 358 1 359 356 351 348 345 344 340 336 331 324 321 318 312 307 298 293 289 285 273 289 276 271 258 254 254 251 245 243 236 231 227 231 223 223 221 217 218 216 210
4 1 360 357 355 353 351 346 344 342 340 337 333 329 326 322 311 305 301 297 292 287 278 272 277 271 267 256 254 249 246 242 235 230 228 230 227 224 222 217 218 214 212
360 0 358 355 353 351 348 344 342 340 337 332 330 329 325 320 315 305 300 298 296 288 283 269 271 284 260 260 250 247 245 240 235 233 228 229 225 223 221 220 220 218 211
354 357 357 356 353 349 346 342 338 336 337 338 334 330 326 320 312 303 298 299 296 296 289 285 269 269 264 254 248 240 244 236 233 233 229 231 227 222 222 216 216 217 209
351 355 355 355 352 348 343 340 340 338 336 337 337 335 329 323 310 295 293 293 291 294 293 287 288 266 268 265 243 230 239 236 230 232 232 228 230 227 225 222 220 222 209
346 350 354 351 349 348 345 343 340 339 338 336 336 336 333 323 309 286 285 287 286 288 291 290 289 295 265 281 245 233 222 230 225 222 223 217 220 230 227 225 220 220 211
347 348 352 351 347 347 343 341 339 336 336 336 336 336 334 327 320 292 278 280 286 288 286 286 290 295 283 265 279 227 214 209 212 221 215 216 212 217 214 214 218 230 231
344 347 349 349 345 343 340 337 335 333 333 334 334 334 335 329 321 309 287 275 280 283 281 282 287 289 293 276 257 285 216 204 199 207 209 216 220 219 207 213 218 201 187
340 343 343 347 342 341 338 336 335 334 331 332 332 332 333 329 321 318 305 274 276 275 277 277 280 288 292 277 273 255 309 220 191 192 210 216 218 213 219 220 221 210 210
340 339 343 342 342 337 337 335 334 330 328 329 330 330 331 326 320 317 307 287 267 274 279 274 277 281 289 257 265 264 273 300 214 198 194 205 219 219 211 211 219 195 196
336 336 339 340 338 336 336 334 331 329 328 327 330 329 328 323 318 315 307 295 272 267 270 275 271 274 283 269 268 261 259 272 224 192 198 199 203 214 215 214 212 192 190